weather.gov     
National Weather Service

Terminal Aerodrome Forecast
NWS Homepage
This page is being discontinued on March 12, 2014.
The same data is available at this site. Please update your bookmarks.
Thank you, and we apologize for the inconvenience.
Please send an email to SR-SRH.Webmaster@noaa.gov with any concerns.


Current Version
Previous Version:    01  02  03  04  05  06  07  08  09  10  11  12  13  14  15  16  17  18  19  20  21  22  23  24  25  
[Printable]
713
FTUS44 KLIX 021100
TAFGPT
TAF
KGPT 021120Z 0212/0312 VRB03KT P6SM SCT020 SCT250
     FM021400 14004KT P6SM SCT030 SCT250
     FM021600 16006KT P6SM VCTS BKN035CB
      TEMPO 0217/0221 VRB25KT 2SM TSRA BKN028CB
     FM030000 12003KT P6SM SCT050 SCT150=


U.S. Dept. of Commerce
NOAA National Weather Service
1325 East West Highway
Silver Spring, MD 20910
E-mail: w-nws.webmaster@noaa.gov
Page last modified: May 16, 2007
NATIONAL WEATHER SERVICE: for Safety, for Work, for Fun - FOR LIFE